Weather in Nelma

Russia / Khabarovsk Krai     47°39′36″N   138°56′47″E
temp.,
°C
wind,
m/s
gust,
m/s
humid.,
%
clouds,
%
prec.,
mm/h
press.,
hPa
HPBL,
m
27 february, sat
sat2701:00−20wnw438639 0.0 103083
04:00−21wnw458619 0.0 1031104
07:00−21wnw45850 0.0 1032104
10:00−14w34850 0.0 1032194
13:00−7wsw24800 0.0 1030408
16:00−5sw23812 0.0 1027479
19:00−10w228784 0.0 102721
22:00−10wnw228692 0.0 102521
28 february, sun
sun2801:00−9w1288100 0.0 102121
04:00−11wnw2286100 0.0 101731
07:00−11w2486100 0.0 101577
10:00−3w41582100 0.0 10141021
13:000w6158468 0.0 10141452
16:000w4149080 0.1 10141616
19:00−7wsw41574100 0.0 1017849
22:00−10w51572100 0.0 1019815
1 march, mon
mon101:00−14wnw31481100 0.0 1021709
04:00−15wnw31483100 0.0 1023851
07:00−18w3167931 0.0 1024805
10:00−14wnw5156616 0.0 10251030
13:00−12wnw714660 0.0 10251249
16:00−12wnw7136810 0.0 10261210
19:00−18w477875 0.0 1029255
22:00−22wnw338886 0.0 103148
2 march, tue
tue201:00−24wnw338891 0.0 103142
04:00−25wnw338954 0.0 103160
07:00−24wnw338796 0.0 103279
10:00−18wnw248097 0.0 1030262
13:00−12w2370100 0.0 1027854
16:00−11se1274100 0.0 1025964
19:00−17nnw0192100 0.0 102720
22:00−20wnw228999 0.1 102933
3 march, wed
wed301:00−23wnw338162 0.0 102850
04:00−25wnw338231 0.0 102854
07:00−25wnw33830 0.0 102961
10:00−17w23790 0.0 1028228
13:00−10wsw24700 0.0 1025651
16:00−8ssw24710 0.0 1022865
19:00−15wsw11900 0.0 102220
22:00−14wnw228850 0.0 102125